Flag for Syria Weather past 2 weeks in Damascus, Syria

Now
84 °F

Scattered clouds.


Feels Like: 82 °F
Forecast: 55 / 84 °F
Wind: 5 mph from North

Location: Damascus Int. Airport

Current Time: Oct 2, 2014 at 1:19:30 PM

Latest Report: Oct 2, 2014 at 1:00 PM


Visibility: N/A

Pressure: 29.95 "Hg

Humidity: 22%

Dew point: 41 °F

Location of DamascusLocation

Historic Weather in Damascus — Graph

°F

Damascus temperature yesterday

Maximum temperature yesterday: 84 °F (at 3:00 PM)
Minimum temperature yesterday: 63 °F (at 4:00 AM)
Average temperature yesterday: 72 °F

Past Weeks' High & Low Weather Summary

 TemperatureHumidityPressure
High97 °F (Sep 24, 2:00 PM)94% (Sep 27, 6:00 AM)30.07 "Hg (Sep 27, 6:00 AM)
Low48 °F (Sep 30, 7:00 AM)13% (Sep 24, 2:00 PM)29.71 "Hg (Sep 19, 5:00 AM)
Average74 °F51%29.96 "Hg
* Reported Sep 17 12:00 Noon — Oct 2 12:00 Noon, Damascus, Weather by CustomWeather, © 2014

Note: Actual official high and low records may vary slightly from our data, if they occured in-between our weather recording intervals... More about our weather records

Advertising

Damascus weather history for previous 24 hours

 ConditionsComfort  
Time TempWeatherWind HumidityBarometerVisibility
12:00 PM
Oct 2
81 °FScattered clouds.2 mph24%29.98 "HgN/A
11:00 AM79 °FScattered clouds.No wind28%29.98 "HgN/A
10:00 AM77 °FScattered clouds.2 mph32%30.01 "HgN/A
9:00 AM72 °FScattered clouds.3 mph41%30.01 "HgN/A
8:00 AM66 °FScattered clouds.5 mph94%29.98 "HgN/A
7:00 AM59 °FPassing clouds.5 mph51%29.98 "HgN/A
6:00 AM64 °FPassing clouds.3 mph46%29.98 "HgN/A
5:00 AM66 °FPassing clouds.8 mph43%29.95 "HgN/A
4:00 AM64 °FPassing clouds.5 mph52%29.95 "HgN/A
3:00 AM66 °FPassing clouds.6 mph52%29.95 "HgN/A
2:00 AM64 °FPassing clouds.6 mph52%29.98 "HgN/A
1:00 AM63 °FPassing clouds.No wind56%29.95 "HgN/A
12:00 AM68 °FPartly cloudy.7 mph46%29.95 "HgN/A
11:00 PM
Oct 1
70 °FPartly cloudy.3 mph43%29.95 "HgN/A
10:00 PM70 °FPassing clouds.5 mph43%29.95 "HgN/A
9:00 PM75 °FPassing clouds.7 mph31%29.95 "HgN/A
8:00 PM72 °FPartly cloudy.12 mph44%29.92 "HgN/A
7:00 PM73 °FBroken clouds.16 mph38%29.89 "HgN/A
6:00 PM79 °FBroken clouds.14 mph32%29.89 "HgN/A
5:00 PM82 °FBroken clouds.18 mph23%29.92 "HgN/A
4:00 PM82 °FScattered clouds.16 mph23%29.92 "HgN/A
3:00 PM84 °FScattered clouds.14 mph22%29.92 "HgN/A
2:00 PM82 °FScattered clouds.16 mph23%29.95 "HgN/A
1:00 PM82 °FScattered clouds.12 mph23%29.98 "Hg4 mi
Weather by CustomWeather, © 2014

See weather overviewHow to use our weather pages